owner,sensor,date,latitude,longitude,vertical_datum,wind_speed,wind_to_direction,wind_speed_of_gust,qcFlag 
ADCP,ioos:station:wmo:42369:1,2016-09-01T00:00:00Z,27.2070,-90.2830,60.4,6.2,172.0,99.0,'11111222,11111222,11144222' 
ADCP,ioos:station:wmo:42369:1,2016-09-01T00:20:00Z,27.2070,-90.2830,60.4,7.3,197.0,99.0,'11111222,11111222,11144222' 
ADCP,ioos:station:wmo:42369:1,2016-09-01T00:40:00Z,27.2070,-90.2830,60.4,7.3,197.0,99.0,'11111222,11111222,11144222' 
ADCP,ioos:station:wmo:42369:1,2016-09-01T01:00:00Z,27.2070,-90.2830,60.4,7.2,205.0,99.0,'11111222,11111222,11144222' 
ADCP,ioos:station:wmo:42369:1,2016-09-01T01:20:00Z,27.2070,-90.2830,60.4,7.2,205.0,99.0,'11111222,11111222,11144222' 
ADCP,ioos:station:wmo:42369:1,2016-09-01T01:40:00Z,27.2070,-90.2830,60.4,8.5,217.0,99.0,'11111222,11111222,11144222' 
ADCP,ioos:station:wmo:42369:1,2016-09-01T02:00:00Z,27.2070,-90.2830,60.4,5.7,156.0,99.0,'11111222,11111222,11144222' 
ADCP,ioos:station:wmo:42369:1,2016-09-01T02:20:00Z,27.2070,-90.2830,60.4,5.7,156.0,99.0,'11111222,11111222,11144222' 
ADCP,ioos:station:wmo:42369:1,2016-09-01T02:40:00Z,27.2070,-90.2830,60.4,3.2,86.0,99.0,'11111222,11111222,11144222' 
ADCP,ioos:station:wmo:42369:1,2016-09-01T03:00:00Z,27.2070,-90.2830,60.4,3.2,86.0,99.0,'11111222,11111222,11144222' 
ADCP,ioos:station:wmo:42369:1,2016-09-01T03:20:00Z,27.2070,-90.2830,60.4,7.1,192.0,99.0,'11111222,11111222,11144222' 
ADCP,ioos:station:wmo:42369:1,2016-09-01T03:40:00Z,27.2070,-90.2830,60.4,6.5,175.0,99.0,'11111222,11111222,11144222' 
ADCP,ioos:station:wmo:42369:1,2016-09-01T04:00:00Z,27.2070,-90.2830,60.4,6.5,175.0,99.0,'11111222,11111222,11144222' 
ADCP,ioos:station:wmo:42369:1,2016-09-01T04:20:00Z,27.2070,-90.2830,60.4,7.0,185.0,99.0,'11111222,11111222,11144222' 
ADCP,ioos:station:wmo:42369:1,2016-09-01T04:40:00Z,27.2070,-90.2830,60.4,5.0,146.0,99.0,'11111222,11111222,11144222' 
ADCP,ioos:station:wmo:42369:1,2016-09-01T05:00:00Z,27.2070,-90.2830,60.4,4.2,98.0,99.0,'11111222,11111222,11144222' 
ADCP,ioos:station:wmo:42369:1,2016-09-01T05:20:00Z,27.2070,-90.2830,60.4,4.4,118.0,99.0,'11111222,11111222,11144222' 
ADCP,ioos:station:wmo:42369:1,2016-09-01T05:40:00Z,27.2070,-90.2830,60.4,4.7,129.0,99.0,'11111222,11111222,11144222' 
ADCP,ioos:station:wmo:42369:1,2016-09-01T06:00:00Z,27.2070,-90.2830,60.4,5.9,178.0,99.0,'11111222,11111222,11144222' 
ADCP,ioos:station:wmo:42369:1,2016-09-01T06:20:00Z,27.2070,-90.2830,60.4,6.9,191.0,99.0,'11111222,11111222,11144222' 
ADCP,ioos:station:wmo:42369:1,2016-09-01T06:40:00Z,27.2070,-90.2830,60.4,6.9,191.0,99.0,'11111222,11111222,11144222' 
ADCP,ioos:station:wmo:42369:1,2016-09-01T07:00:00Z,27.2070,-90.2830,60.4,7.3,214.0,99.0,'11111222,11111222,11144222' 
ADCP,ioos:station:wmo:42369:1,2016-09-01T07:20:00Z,27.2070,-90.2830,60.4,6.3,178.0,99.0,'11111222,11111222,11144222' 
ADCP,ioos:station:wmo:42369:1,2016-09-01T07:40:00Z,27.2070,-90.2830,60.4,6.3,178.0,99.0,'11111222,11111222,11144222' 
ADCP,ioos:station:wmo:42369:1,2016-09-01T08:00:00Z,27.2070,-90.2830,60.4,5.2,163.0,99.0,'11111222,11111222,11144222' 
ADCP,ioos:station:wmo:42369:1,2016-09-01T08:20:00Z,27.2070,-90.2830,60.4,6.8,219.0,99.0,'11111222,11111222,11144222' 
ADCP,ioos:station:wmo:42369:1,2016-09-01T08:40:00Z,27.2070,-90.2830,60.4,6.8,219.0,99.0,'11111222,11111222,11144222' 
ADCP,ioos:station:wmo:42369:1,2016-09-01T09:00:00Z,27.2070,-90.2830,60.4,6.0,269.0,99.0,'11111222,11111222,11144222' 
ADCP,ioos:station:wmo:42369:1,2016-09-01T09:20:00Z,27.2070,-90.2830,60.4,6.0,269.0,99.0,'11111222,11111222,11144222' 
ADCP,ioos:station:wmo:42369:1,2016-09-01T09:40:00Z,27.2070,-90.2830,60.4,6.0,269.0,99.0,'11111222,11111222,11144222' 
ADCP,ioos:station:wmo:42369:1,2016-09-01T10:00:00Z,27.2070,-90.2830,60.4,3.5,138.0,99.0,'11111222,11111222,11144222' 
ADCP,ioos:station:wmo:42369:1,2016-09-01T10:20:00Z,27.2070,-90.2830,60.4,2.4,69.0,99.0,'11111222,11111222,11144222' 
ADCP,ioos:station:wmo:42369:1,2016-09-01T10:40:00Z,27.2070,-90.2830,60.4,2.4,69.0,99.0,'11111222,11111222,11144222' 
ADCP,ioos:station:wmo:42369:1,2016-09-01T11:00:00Z,27.2070,-90.2830,60.4,7.8,274.0,99.0,'11111222,11111222,11144222' 
ADCP,ioos:station:wmo:42369:1,2016-09-01T11:20:00Z,27.2070,-90.2830,60.4,7.8,274.0,99.0,'11111222,11111222,11144222' 
ADCP,ioos:station:wmo:42369:1,2016-09-01T11:40:00Z,27.2070,-90.2830,60.4,10.4,325.0,99.0,'11111222,11111222,11144222' 
ADCP,ioos:station:wmo:42369:1,2016-09-01T12:00:00Z,27.2070,-90.2830,60.4,11.7,324.0,99.0,'11111222,11111222,11144222' 
ADCP,ioos:station:wmo:42369:1,2016-09-01T12:20:00Z,27.2070,-90.2830,60.4,9.0,321.0,99.0,'11111222,11111222,11144222' 
ADCP,ioos:station:wmo:42369:1,2016-09-01T12:40:00Z,27.2070,-90.2830,60.4,6.7,273.0,99.0,'11111222,11111222,11144222' 
ADCP,ioos:station:wmo:42369:1,2016-09-01T13:00:00Z,27.2070,-90.2830,60.4,6.7,273.0,99.0,'11111222,11111222,11144222' 
ADCP,ioos:station:wmo:42369:1,2016-09-01T13:20:00Z,27.2070,-90.2830,60.4,7.0,303.0,99.0,'11111222,11111222,11144222' 
ADCP,ioos:station:wmo:42369:1,2016-09-01T13:40:00Z,27.2070,-90.2830,60.4,5.7,298.0,99.0,'11111222,11111222,11144222' 
ADCP,ioos:station:wmo:42369:1,2016-09-01T14:00:00Z,27.2070,-90.2830,60.4,5.7,298.0,99.0,'11111222,11111222,11144222' 
ADCP,ioos:station:wmo:42369:1,2016-09-01T14:20:00Z,27.2070,-90.2830,60.4,5.0,286.0,99.0,'11111222,11111222,11144222' 
ADCP,ioos:station:wmo:42369:1,2016-09-01T14:40:00Z,27.2070,-90.2830,60.4,5.0,286.0,99.0,'11111222,11111222,11144222' 
ADCP,ioos:station:wmo:42369:1,2016-09-01T15:00:00Z,27.2070,-90.2830,60.4,5.5,305.0,99.0,'11111222,11111222,11144222' 
ADCP,ioos:station:wmo:42369:1,2016-09-01T15:20:00Z,27.2070,-90.2830,60.4,5.5,305.0,99.0,'11111222,11111222,11144222' 
ADCP,ioos:station:wmo:42369:1,2016-09-01T15:40:00Z,27.2070,-90.2830,60.4,5.4,275.0,99.0,'11111222,11111222,11144222' 
ADCP,ioos:station:wmo:42369:1,2016-09-01T16:00:00Z,27.2070,-90.2830,60.4,5.3,294.0,99.0,'11111222,11111222,11144222' 
ADCP,ioos:station:wmo:42369:1,2016-09-01T16:20:00Z,27.2070,-90.2830,60.4,5.3,294.0,99.0,'11111222,11111222,11144222' 
ADCP,ioos:station:wmo:42369:1,2016-09-01T16:40:00Z,27.2070,-90.2830,60.4,8.9,324.0,99.0,'11111222,11111222,11144222' 
ADCP,ioos:station:wmo:42369:1,2016-09-01T17:00:00Z,27.2070,-90.2830,60.4,8.8,320.0,99.0,'11111222,11111222,11144222' 
ADCP,ioos:station:wmo:42369:1,2016-09-01T17:20:00Z,27.2070,-90.2830,60.4,8.8,320.0,99.0,'11111222,11111222,11144222' 
ADCP,ioos:station:wmo:42369:1,2016-09-01T17:40:00Z,27.2070,-90.2830,60.4,6.5,239.0,99.0,'11111222,11111222,11144222' 
ADCP,ioos:station:wmo:42369:1,2016-09-01T18:00:00Z,27.2070,-90.2830,60.4,1.8,149.0,99.0,'11111222,11111222,11144222' 
ADCP,ioos:station:wmo:42369:1,2016-09-01T18:20:00Z,27.2070,-90.2830,60.4,1.8,149.0,99.0,'11111222,11111222,11144222' 
ADCP,ioos:station:wmo:42369:1,2016-09-01T18:40:00Z,27.2070,-90.2830,60.4,1.8,149.0,99.0,'11111222,11111222,11144222' 
ADCP,ioos:station:wmo:42369:1,2016-09-01T19:00:00Z,27.2070,-90.2830,60.4,8.7,323.0,99.0,'11111222,11111222,11144222' 
ADCP,ioos:station:wmo:42369:1,2016-09-01T19:20:00Z,27.2070,-90.2830,60.4,8.7,323.0,99.0,'11111222,11111222,11144222' 
ADCP,ioos:station:wmo:42369:1,2016-09-01T19:40:00Z,27.2070,-90.2830,60.4,8.3,324.0,99.0,'11111222,11111222,11144222' 
ADCP,ioos:station:wmo:42369:1,2016-09-01T20:00:00Z,27.2070,-90.2830,60.4,7.4,323.0,99.0,'11111222,11111222,11144222' 
ADCP,ioos:station:wmo:42369:1,2016-09-01T20:20:00Z,27.2070,-90.2830,60.4,7.4,323.0,99.0,'11111222,11111222,11144222' 
ADCP,ioos:station:wmo:42369:1,2016-09-01T20:40:00Z,27.2070,-90.2830,60.4,8.5,325.0,99.0,'11111222,11111222,11144222' 
ADCP,ioos:station:wmo:42369:1,2016-09-01T21:00:00Z,27.2070,-90.2830,60.4,8.5,325.0,99.0,'11111222,11111222,11144222' 
ADCP,ioos:station:wmo:42369:1,2016-09-01T21:20:00Z,27.2070,-90.2830,60.4,8.1,323.0,99.0,'11111222,11111222,11144222' 
ADCP,ioos:station:wmo:42369:1,2016-09-01T21:40:00Z,27.2070,-90.2830,60.4,8.1,323.0,99.0,'11111222,11111222,11144222' 
ADCP,ioos:station:wmo:42369:1,2016-09-01T22:00:00Z,27.2070,-90.2830,60.4,7.4,325.0,99.0,'11111222,11111222,11144222' 
ADCP,ioos:station:wmo:42369:1,2016-09-01T22:20:00Z,27.2070,-90.2830,60.4,7.8,323.0,99.0,'11111222,11111222,11144222' 
ADCP,ioos:station:wmo:42369:1,2016-09-01T22:40:00Z,27.2070,-90.2830,60.4,7.8,323.0,99.0,'11111222,11111222,11144222' 
ADCP,ioos:station:wmo:42369:1,2016-09-01T23:00:00Z,27.2070,-90.2830,60.4,7.5,325.0,99.0,'11111222,11111222,11144222' 
ADCP,ioos:station:wmo:42369:1,2016-09-01T23:20:00Z,27.2070,-90.2830,60.4,7.5,325.0,99.0,'11111222,11111222,11144222' 
ADCP,ioos:station:wmo:42369:1,2016-09-01T23:40:00Z,27.2070,-90.2830,60.4,5.3,322.0,99.0,'11111222,11111222,11144222' 
ADCP,ioos:station:wmo:42369:1,2016-09-02T00:00:00Z,27.2070,-90.2830,60.4,5.3,322.0,99.0,'11111222,11111222,11144222' 
ADCP,ioos:station:wmo:42369:1,2016-09-02T00:20:00Z,27.2070,-90.2830,60.4,3.1,276.0,99.0,'11111222,11111222,11144222' 
ADCP,ioos:station:wmo:42369:1,2016-09-02T00:40:00Z,27.2070,-90.2830,60.4,3.1,276.0,99.0,'11111222,11111222,11144222' 
ADCP,ioos:station:wmo:42369:1,2016-09-02T01:00:00Z,27.2070,-90.2830,60.4,3.1,276.0,99.0,'11111222,11111222,11144222' 
ADCP,ioos:station:wmo:42369:1,2016-09-02T01:20:00Z,27.2070,-90.2830,60.4,1.5,162.0,99.0,'11111222,11111222,11144222' 
ADCP,ioos:station:wmo:42369:1,2016-09-02T01:40:00Z,27.2070,-90.2830,60.4,1.5,162.0,99.0,'11111222,11111222,11144222' 
ADCP,ioos:station:wmo:42369:1,2016-09-02T02:00:00Z,27.2070,-90.2830,60.4,1.5,162.0,99.0,'11111222,11111222,11144222' 
ADCP,ioos:station:wmo:42369:1,2016-09-02T02:20:00Z,27.2070,-90.2830,60.4,2.1,168.0,99.0,'11111222,11111222,11144222' 
ADCP,ioos:station:wmo:42369:1,2016-09-02T02:40:00Z,27.2070,-90.2830,60.4,2.4,211.0,99.0,'11111222,11111222,11144222' 
ADCP,ioos:station:wmo:42369:1,2016-09-02T03:00:00Z,27.2070,-90.2830,60.4,2.4,211.0,99.0,'11111222,11111222,11144222' 
ADCP,ioos:station:wmo:42369:1,2016-09-02T03:20:00Z,27.2070,-90.2830,60.4,1.0,72.0,99.0,'11111222,11111222,11144222' 
ADCP,ioos:station:wmo:42369:1,2016-09-02T03:40:00Z,27.2070,-90.2830,60.4,1.0,69.0,99.0,'11111222,11111222,11144222' 
ADCP,ioos:station:wmo:42369:1,2016-09-02T04:00:00Z,27.2070,-90.2830,60.4,0.8,59.0,99.0,'11111222,11111222,11144222' 
ADCP,ioos:station:wmo:42369:1,2016-09-02T04:20:00Z,27.2070,-90.2830,60.4,0.8,59.0,99.0,'11111222,11111222,11144222' 
ADCP,ioos:station:wmo:42369:1,2016-09-02T04:40:00Z,27.2070,-90.2830,60.4,0.8,59.0,99.0,'11111222,11111222,11144222' 
ADCP,ioos:station:wmo:42369:1,2016-09-02T05:00:00Z,27.2070,-90.2830,60.4,0.8,63.0,99.0,'11111222,11111222,11144222' 
ADCP,ioos:station:wmo:42369:1,2016-09-02T05:20:00Z,27.2070,-90.2830,60.4,0.7,72.0,99.0,'11111222,11111222,11144222' 
ADCP,ioos:station:wmo:42369:1,2016-09-02T05:40:00Z,27.2070,-90.2830,60.4,0.8,58.0,99.0,'11111222,11111222,11144222' 
ADCP,ioos:station:wmo:42369:1,2016-09-02T06:00:00Z,27.2070,-90.2830,60.4,1.2,73.0,99.0,'11111222,11111222,11144222' 
ADCP,ioos:station:wmo:42369:1,2016-09-02T06:20:00Z,27.2070,-90.2830,60.4,1.2,73.0,99.0,'11111222,11111222,11144222' 
ADCP,ioos:station:wmo:42369:1,2016-09-02T06:40:00Z,27.2070,-90.2830,60.4,1.2,73.0,99.0,'11111222,11111222,11144222' 
ADCP,ioos:station:wmo:42369:1,2016-09-02T07:00:00Z,27.2070,-90.2830,60.4,0.4,96.0,99.0,'11111222,11111222,11144222' 
ADCP,ioos:station:wmo:42369:1,2016-09-02T07:20:00Z,27.2070,-90.2830,60.4,0.4,83.0,99.0,'11111222,11111222,11144222' 
ADCP,ioos:station:wmo:42369:1,2016-09-02T07:40:00Z,27.2070,-90.2830,60.4,1.7,146.0,99.0,'11111222,11111222,11144222' 
ADCP,ioos:station:wmo:42369:1,2016-09-02T08:00:00Z,27.2070,-90.2830,60.4,1.7,146.0,99.0,'11111222,11111222,11144222' 
ADCP,ioos:station:wmo:42369:1,2016-09-02T08:20:00Z,27.2070,-90.2830,60.4,2.0,148.0,99.0,'11111222,11111222,11144222' 
ADCP,ioos:station:wmo:42369:1,2016-09-02T08:40:00Z,27.2070,-90.2830,60.4,2.0,148.0,99.0,'11111222,11111222,11144222' 
ADCP,ioos:station:wmo:42369:1,2016-09-02T09:00:00Z,27.2070,-90.2830,60.4,2.1,145.0,99.0,'11111222,11111222,11144222' 
ADCP,ioos:station:wmo:42369:1,2016-09-02T09:20:00Z,27.2070,-90.2830,60.4,2.0,153.0,99.0,'11111222,11111222,11144222' 
ADCP,ioos:station:wmo:42369:1,2016-09-02T09:40:00Z,27.2070,-90.2830,60.4,1.6,167.0,99.0,'11111222,11111222,11144222' 
ADCP,ioos:station:wmo:42369:1,2016-09-02T10:00:00Z,27.2070,-90.2830,60.4,1.6,167.0,99.0,'11111222,11111222,11144222' 
ADCP,ioos:station:wmo:42369:1,2016-09-02T10:20:00Z,27.2070,-90.2830,60.4,1.0,180.0,99.0,'11111222,11111222,11144222' 
ADCP,ioos:station:wmo:42369:1,2016-09-02T10:40:00Z,27.2070,-90.2830,60.4,0.8,183.0,99.0,'11111222,11111222,11144222' 
ADCP,ioos:station:wmo:42369:1,2016-09-02T11:00:00Z,27.2070,-90.2830,60.4,1.0,189.0,99.0,'11111222,11111222,11144222' 
ADCP,ioos:station:wmo:42369:1,2016-09-02T11:20:00Z,27.2070,-90.2830,60.4,1.0,194.0,99.0,'11111222,11111222,11144222' 
ADCP,ioos:station:wmo:42369:1,2016-09-02T11:40:00Z,27.2070,-90.2830,60.4,1.2,188.0,99.0,'11111222,11111222,11144222' 
ADCP,ioos:station:wmo:42369:1,2016-09-02T12:00:00Z,27.2070,-90.2830,60.4,1.2,188.0,99.0,'11111222,11111222,11144222' 
ADCP,ioos:station:wmo:42369:1,2016-09-02T12:20:00Z,27.2070,-90.2830,60.4,1.1,190.0,99.0,'11111222,11111222,11144222' 
ADCP,ioos:station:wmo:42369:1,2016-09-02T12:40:00Z,27.2070,-90.2830,60.4,1.1,190.0,99.0,'11111222,11111222,11144222' 
ADCP,ioos:station:wmo:42369:1,2016-09-02T13:00:00Z,27.2070,-90.2830,60.4,1.1,190.0,99.0,'11111222,11111222,11144222' 
ADCP,ioos:station:wmo:42369:1,2016-09-02T13:20:00Z,27.2070,-90.2830,60.4,2.0,265.0,99.0,'11111222,11111222,11144222' 
ADCP,ioos:station:wmo:42369:1,2016-09-02T13:40:00Z,27.2070,-90.2830,60.4,1.1,237.0,99.0,'11111222,11111222,11144222' 
ADCP,ioos:station:wmo:42369:1,2016-09-02T14:00:00Z,27.2070,-90.2830,60.4,1.9,278.0,99.0,'11111222,11111222,11144222' 
ADCP,ioos:station:wmo:42369:1,2016-09-02T14:20:00Z,27.2070,-90.2830,60.4,1.9,278.0,99.0,'11111222,11111222,11144222' 
ADCP,ioos:station:wmo:42369:1,2016-09-02T14:40:00Z,27.2070,-90.2830,60.4,0.8,254.0,99.0,'11111222,11111222,11144222' 
ADCP,ioos:station:wmo:42369:1,2016-09-02T15:00:00Z,27.2070,-90.2830,60.4,0.8,254.0,99.0,'11111222,11111222,11144222' 
ADCP,ioos:station:wmo:42369:1,2016-09-02T15:20:00Z,27.2070,-90.2830,60.4,1.1,241.0,99.0,'11111222,11111222,11144222' 
ADCP,ioos:station:wmo:42369:1,2016-09-02T15:40:00Z,27.2070,-90.2830,60.4,1.1,241.0,99.0,'11111222,11111222,11144222' 
ADCP,ioos:station:wmo:42369:1,2016-09-02T16:00:00Z,27.2070,-90.2830,60.4,1.1,241.0,99.0,'11111222,11111222,11144222' 
ADCP,ioos:station:wmo:42369:1,2016-09-02T16:20:00Z,27.2070,-90.2830,60.4,1.1,241.0,99.0,'11111222,11111222,11144222' 
ADCP,ioos:station:wmo:42369:1,2016-09-02T16:40:00Z,27.2070,-90.2830,60.4,2.0,150.0,99.0,'11111222,11111222,11144222' 
ADCP,ioos:station:wmo:42369:1,2016-09-02T17:00:00Z,27.2070,-90.2830,60.4,2.0,150.0,99.0,'11111222,11111222,11144222' 
ADCP,ioos:station:wmo:42369:1,2016-09-02T17:20:00Z,27.2070,-90.2830,60.4,2.2,159.0,99.0,'11111222,11111222,11144222' 
ADCP,ioos:station:wmo:42369:1,2016-09-02T17:40:00Z,27.2070,-90.2830,60.4,2.2,159.0,99.0,'11111222,11111222,11144222' 
ADCP,ioos:station:wmo:42369:1,2016-09-02T18:00:00Z,27.2070,-90.2830,60.4,2.2,138.0,99.0,'11111222,11111222,11144222' 
ADCP,ioos:station:wmo:42369:1,2016-09-02T18:20:00Z,27.2070,-90.2830,60.4,1.7,144.0,99.0,'11111222,11111222,11144222' 
ADCP,ioos:station:wmo:42369:1,2016-09-02T18:40:00Z,27.2070,-90.2830,60.4,2.2,138.0,99.0,'11111222,11111222,11144222' 
ADCP,ioos:station:wmo:42369:1,2016-09-02T19:00:00Z,27.2070,-90.2830,60.4,2.4,138.0,99.0,'11111222,11111222,11144222' 
ADCP,ioos:station:wmo:42369:1,2016-09-02T19:20:00Z,27.2070,-90.2830,60.4,2.4,138.0,99.0,'11111222,11111222,11144222' 
ADCP,ioos:station:wmo:42369:1,2016-09-02T19:40:00Z,27.2070,-90.2830,60.4,2.4,130.0,99.0,'11111222,11111222,11144222' 
ADCP,ioos:station:wmo:42369:1,2016-09-02T20:00:00Z,27.2070,-90.2830,60.4,2.4,137.0,99.0,'11111222,11111222,11144222' 
ADCP,ioos:station:wmo:42369:1,2016-09-02T20:20:00Z,27.2070,-90.2830,60.4,1.5,132.0,99.0,'11111222,11111222,11144222' 
ADCP,ioos:station:wmo:42369:1,2016-09-02T20:40:00Z,27.2070,-90.2830,60.4,1.8,146.0,99.0,'11111222,11111222,11144222' 
ADCP,ioos:station:wmo:42369:1,2016-09-02T21:00:00Z,27.2070,-90.2830,60.4,1.3,156.0,99.0,'11111222,11111222,11144222' 
ADCP,ioos:station:wmo:42369:1,2016-09-02T21:20:00Z,27.2070,-90.2830,60.4,1.3,156.0,99.0,'11111222,11111222,11144222' 
ADCP,ioos:station:wmo:42369:1,2016-09-02T21:40:00Z,27.2070,-90.2830,60.4,1.3,156.0,99.0,'11111222,11111222,11144222' 
ADCP,ioos:station:wmo:42369:1,2016-09-02T22:00:00Z,27.2070,-90.2830,60.4,1.3,156.0,99.0,'11111222,11111222,11144222' 
ADCP,ioos:station:wmo:42369:1,2016-09-02T22:20:00Z,27.2070,-90.2830,60.4,1.4,142.0,99.0,'11111222,11111222,11144222' 
ADCP,ioos:station:wmo:42369:1,2016-09-02T22:40:00Z,27.2070,-90.2830,60.4,1.4,142.0,99.0,'11111222,11111222,11144222' 
ADCP,ioos:station:wmo:42369:1,2016-09-02T23:00:00Z,27.2070,-90.2830,60.4,1.4,142.0,99.0,'11111222,11111222,11144222' 
ADCP,ioos:station:wmo:42369:1,2016-09-02T23:20:00Z,27.2070,-90.2830,60.4,1.4,142.0,99.0,'11111222,11111222,11144222' 
ADCP,ioos:station:wmo:42369:1,2016-09-02T23:40:00Z,27.2070,-90.2830,60.4,1.9,138.0,99.0,'11111222,11111222,11144222' 
ADCP,ioos:station:wmo:42369:1,2016-09-03T00:00:00Z,27.2070,-90.2830,60.4,1.9,138.0,99.0,'11111222,11111222,11144222' 
ADCP,ioos:station:wmo:42369:1,2016-09-03T00:20:00Z,27.2070,-90.2830,60.4,1.0,125.0,99.0,'11111222,11111222,11144222' 
ADCP,ioos:station:wmo:42369:1,2016-09-03T00:40:00Z,27.2070,-90.2830,60.4,1.0,121.0,99.0,'11111222,11111222,11144222' 
ADCP,ioos:station:wmo:42369:1,2016-09-03T01:00:00Z,27.2070,-90.2830,60.4,1.0,121.0,99.0,'11111222,11111222,11144222' 
ADCP,ioos:station:wmo:42369:1,2016-09-03T01:20:00Z,27.2070,-90.2830,60.4,1.7,131.0,99.0,'11111222,11111222,11144222' 
ADCP,ioos:station:wmo:42369:1,2016-09-03T01:40:00Z,27.2070,-90.2830,60.4,2.0,129.0,99.0,'11111222,11111222,11144222' 
ADCP,ioos:station:wmo:42369:1,2016-09-03T02:00:00Z,27.2070,-90.2830,60.4,2.0,129.0,99.0,'11111222,11111222,11144222' 
ADCP,ioos:station:wmo:42369:1,2016-09-03T02:20:00Z,27.2070,-90.2830,60.4,2.0,132.0,99.0,'11111222,11111222,11144222' 
ADCP,ioos:station:wmo:42369:1,2016-09-03T02:40:00Z,27.2070,-90.2830,60.4,1.8,124.0,99.0,'11111222,11111222,11144222' 
ADCP,ioos:station:wmo:42369:1,2016-09-03T03:00:00Z,27.2070,-90.2830,60.4,1.1,109.0,99.0,'11111222,11111222,11144222' 
ADCP,ioos:station:wmo:42369:1,2016-09-03T03:20:00Z,27.2070,-90.2830,60.4,1.1,92.0,99.0,'11111222,11111222,11144222' 
ADCP,ioos:station:wmo:42369:1,2016-09-03T03:40:00Z,27.2070,-90.2830,60.4,1.0,103.0,99.0,'11111222,11111222,11144222' 
ADCP,ioos:station:wmo:42369:1,2016-09-03T04:00:00Z,27.2070,-90.2830,60.4,1.0,103.0,99.0,'11111222,11111222,11144222' 
ADCP,ioos:station:wmo:42369:1,2016-09-03T04:20:00Z,27.2070,-90.2830,60.4,1.4,129.0,99.0,'11111222,11111222,11144222' 
ADCP,ioos:station:wmo:42369:1,2016-09-03T04:40:00Z,27.2070,-90.2830,60.4,1.4,129.0,99.0,'11111222,11111222,11144222' 
ADCP,ioos:station:wmo:42369:1,2016-09-03T05:00:00Z,27.2070,-90.2830,60.4,1.7,133.0,99.0,'11111222,11111222,11144222' 
ADCP,ioos:station:wmo:42369:1,2016-09-03T05:20:00Z,27.2070,-90.2830,60.4,1.3,127.0,99.0,'11111222,11111222,11144222' 
ADCP,ioos:station:wmo:42369:1,2016-09-03T05:40:00Z,27.2070,-90.2830,60.4,1.3,127.0,99.0,'11111222,11111222,11144222' 
ADCP,ioos:station:wmo:42369:1,2016-09-03T06:00:00Z,27.2070,-90.2830,60.4,0.9,93.0,99.0,'11111222,11111222,11144222' 
ADCP,ioos:station:wmo:42369:1,2016-09-03T06:20:00Z,27.2070,-90.2830,60.4,1.7,91.0,99.0,'11111222,11111222,11144222' 
ADCP,ioos:station:wmo:42369:1,2016-09-03T06:40:00Z,27.2070,-90.2830,60.4,6.2,136.0,99.0,'11111222,11111222,11144222' 
ADCP,ioos:station:wmo:42369:1,2016-09-03T07:00:00Z,27.2070,-90.2830,60.4,5.9,146.0,99.0,'11111222,11111222,11144222' 
ADCP,ioos:station:wmo:42369:1,2016-09-03T07:20:00Z,27.2070,-90.2830,60.4,3.3,126.0,99.0,'11111222,11111222,11144222' 
ADCP,ioos:station:wmo:42369:1,2016-09-03T07:40:00Z,27.2070,-90.2830,60.4,3.3,126.0,99.0,'11111222,11111222,11144222' 
ADCP,ioos:station:wmo:42369:1,2016-09-03T08:00:00Z,27.2070,-90.2830,60.4,2.5,122.0,99.0,'11111222,11111222,11144222' 
ADCP,ioos:station:wmo:42369:1,2016-09-03T08:20:00Z,27.2070,-90.2830,60.4,2.1,133.0,99.0,'11111222,11111222,11144222' 
ADCP,ioos:station:wmo:42369:1,2016-09-03T08:40:00Z,27.2070,-90.2830,60.4,2.1,133.0,99.0,'11111222,11111222,11144222' 
ADCP,ioos:station:wmo:42369:1,2016-09-03T09:00:00Z,27.2070,-90.2830,60.4,2.1,133.0,99.0,'11111222,11111222,11144222' 
ADCP,ioos:station:wmo:42369:1,2016-09-03T09:20:00Z,27.2070,-90.2830,60.4,1.9,130.0,99.0,'11111222,11111222,11144222' 
ADCP,ioos:station:wmo:42369:1,2016-09-03T09:40:00Z,27.2070,-90.2830,60.4,1.3,117.0,99.0,'11111222,11111222,11144222' 
ADCP,ioos:station:wmo:42369:1,2016-09-03T10:00:00Z,27.2070,-90.2830,60.4,1.3,117.0,99.0,'11111222,11111222,11144222' 
ADCP,ioos:station:wmo:42369:1,2016-09-03T10:20:00Z,27.2070,-90.2830,60.4,1.3,117.0,99.0,'11111222,11111222,11144222' 
ADCP,ioos:station:wmo:42369:1,2016-09-03T10:40:00Z,27.2070,-90.2830,60.4,1.9,119.0,99.0,'11111222,11111222,11144222' 
ADCP,ioos:station:wmo:42369:1,2016-09-03T11:00:00Z,27.2070,-90.2830,60.4,1.8,103.0,99.0,'11111222,11111222,11144222' 
ADCP,ioos:station:wmo:42369:1,2016-09-03T11:20:00Z,27.2070,-90.2830,60.4,3.7,124.0,99.0,'11111222,11111222,11144222' 
ADCP,ioos:station:wmo:42369:1,2016-09-03T11:40:00Z,27.2070,-90.2830,60.4,2.4,124.0,99.0,'11111222,11111222,11144222' 
ADCP,ioos:station:wmo:42369:1,2016-09-03T12:00:00Z,27.2070,-90.2830,60.4,2.0,116.0,99.0,'11111222,11111222,11144222' 
ADCP,ioos:station:wmo:42369:1,2016-09-03T12:20:00Z,27.2070,-90.2830,60.4,2.0,116.0,99.0,'11111222,11111222,11144222' 
ADCP,ioos:station:wmo:42369:1,2016-09-03T12:40:00Z,27.2070,-90.2830,60.4,3.9,90.0,99.0,'11111222,11111222,11144222' 
ADCP,ioos:station:wmo:42369:1,2016-09-03T13:00:00Z,27.2070,-90.2830,60.4,2.2,114.0,99.0,'11111222,11111222,11144222' 
ADCP,ioos:station:wmo:42369:1,2016-09-03T13:20:00Z,27.2070,-90.2830,60.4,2.9,107.0,99.0,'11111222,11111222,11144222' 
ADCP,ioos:station:wmo:42369:1,2016-09-03T13:40:00Z,27.2070,-90.2830,60.4,3.6,98.0,99.0,'11111222,11111222,11144222' 
ADCP,ioos:station:wmo:42369:1,2016-09-03T14:00:00Z,27.2070,-90.2830,60.4,5.0,89.0,99.0,'11111222,11111222,11144222' 
ADCP,ioos:station:wmo:42369:1,2016-09-03T14:20:00Z,27.2070,-90.2830,60.4,5.4,87.0,99.0,'11111222,11111222,11144222' 
ADCP,ioos:station:wmo:42369:1,2016-09-03T14:40:00Z,27.2070,-90.2830,60.4,4.3,98.0,99.0,'11111222,11111222,11144222' 
ADCP,ioos:station:wmo:42369:1,2016-09-03T15:00:00Z,27.2070,-90.2830,60.4,4.3,98.0,99.0,'11111222,11111222,11144222' 
ADCP,ioos:station:wmo:42369:1,2016-09-03T15:20:00Z,27.2070,-90.2830,60.4,8.7,145.0,99.0,'11111222,11111222,11144222' 
ADCP,ioos:station:wmo:42369:1,2016-09-03T15:40:00Z,27.2070,-90.2830,60.4,8.7,145.0,99.0,'11111222,11111222,11144222' 
ADCP,ioos:station:wmo:42369:1,2016-09-03T16:00:00Z,27.2070,-90.2830,60.4,8.7,145.0,99.0,'11111222,11111222,11144222' 
ADCP,ioos:station:wmo:42369:1,2016-09-03T16:20:00Z,27.2070,-90.2830,60.4,8.7,140.0,99.0,'11111222,11111222,11144222' 
ADCP,ioos:station:wmo:42369:1,2016-09-03T16:40:00Z,27.2070,-90.2830,60.4,8.7,140.0,99.0,'11111222,11111222,11144222' 
ADCP,ioos:station:wmo:42369:1,2016-09-03T17:00:00Z,27.2070,-90.2830,60.4,8.1,146.0,99.0,'11111222,11111222,11144222' 
ADCP,ioos:station:wmo:42369:1,2016-09-03T17:20:00Z,27.2070,-90.2830,60.4,7.8,142.0,99.0,'11111222,11111222,11144222' 
ADCP,ioos:station:wmo:42369:1,2016-09-03T17:40:00Z,27.2070,-90.2830,60.4,7.8,142.0,99.0,'11111222,11111222,11144222' 
ADCP,ioos:station:wmo:42369:1,2016-09-03T18:00:00Z,27.2070,-90.2830,60.4,7.8,142.0,99.0,'11111222,11111222,11144222' 
ADCP,ioos:station:wmo:42369:1,2016-09-03T18:20:00Z,27.2070,-90.2830,60.4,7.4,158.0,99.0,'11111222,11111222,11144222' 
ADCP,ioos:station:wmo:42369:1,2016-09-03T18:40:00Z,27.2070,-90.2830,60.4,7.4,158.0,99.0,'11111222,11111222,11144222' 
ADCP,ioos:station:wmo:42369:1,2016-09-03T19:00:00Z,27.2070,-90.2830,60.4,7.6,155.0,99.0,'11111222,11111222,11144222' 